Flag for Germany Weather past 2 weeks in Idar-Oberstein, Rhineland-Palatinate, Germany

Now
36 °F

Passing clouds.


Feels Like: 28 °F
Forecast: 33 / 52 °F
Wind: 10 mph from West

Location: Hahn

Current Time: Mar 27, 2015 at 7:00:01 AM

Latest Report: Mar 27, 2015 at 6:20 AM


Visibility: N/A

Pressure: 29.92 "Hg

Humidity: 93%

Dew point: 34 °F

Location of Idar-ObersteinLocation

Historic Weather in Idar-Oberstein — Graph

°F

Idar-Oberstein temperature yesterday

Maximum temperature yesterday: 46 °F (at 2:20 PM)
Minimum temperature yesterday: 36 °F (at 6:20 AM)
Average temperature yesterday: 38 °F

Past Weeks' High & Low Weather Summary

 TemperatureHumidityPressure
High61 °F (Mar 18, 2:20 PM)100% (Mar 15, 5:20 AM)30.42 "Hg (Mar 15, 5:20 AM)
Low28 °F (Mar 13, 6:20 AM)29% (Mar 18, 2:50 PM)29.62 "Hg (Mar 25, 1:20 AM)
Average40 °F82%30.08 "Hg
* Reported Mar 12 5:20 AM — Mar 27 5:50 AM, Idar-Oberstein, Weather by CustomWeather, © 2015

Note: Actual official high and low records may vary slightly from our data, if they occured in-between our weather recording intervals... More about our weather records

Advertising

Idar-Oberstein weather history for previous 24 hours

 ConditionsComfort  
Time TempWeatherWind HumidityBarometerVisibility
5:50 AM
Fri, Mar 27
36 °FPassing clouds.10 mph93%29.92 "HgN/A
5:20 AM36 °FPassing clouds.10 mph100%29.92 "Hg5 mi
4:50 AM37 °FPassing clouds.12 mph93%29.89 "Hg4 mi
4:20 AM37 °FPassing clouds.12 mph93%29.89 "Hg4 mi
3:50 AM37 °FPassing clouds.13 mph100%29.86 "Hg4 mi
3:20 AM37 °FFog.13 mph100%29.86 "Hg2 mi
2:50 AM37 °FFog.13 mph100%29.86 "Hg2 mi
2:20 AM39 °FFog.13 mph100%29.86 "Hg2 mi
1:50 AM37 °FDrizzle. Fog.12 mph100%29.83 "Hg1 mi
1:20 AM37 °FFog.12 mph100%29.83 "Hg2 mi
12:50 AM37 °FFog.10 mph100%29.83 "Hg3 mi
12:20 AM37 °FFog.14 mph100%29.83 "Hg2 mi
11:50 PM
Thu, Mar 26
37 °FLight rain. Fog.13 mph100%29.80 "Hg2 mi
11:20 PM37 °FPassing clouds.13 mph100%29.80 "Hg4 mi
10:50 PM37 °FPassing clouds.12 mph100%29.80 "Hg5 mi
10:20 PM37 °FLight rain. Passing clouds.13 mph93%29.80 "Hg5 mi
9:50 PM36 °FLight rain. Fog.12 mph100%29.77 "Hg3 mi
9:20 PM36 °FLight rain. Fog.12 mph100%29.80 "Hg2 mi
8:50 PM36 °FLight rain. Passing clouds.9 mph100%29.77 "Hg4 mi
8:20 PM36 °FLight rain. Passing clouds.8 mph93%29.77 "Hg5 mi
7:50 PM36 °FLight rain. Passing clouds.9 mph93%29.77 "HgN/A
7:20 PM36 °FLight rain. Partly cloudy.12 mph93%29.77 "HgN/A
6:50 PM36 °FBroken clouds.13 mph93%29.77 "HgN/A
6:20 PM36 °FPartly sunny.13 mph93%29.77 "HgN/A
5:50 PM36 °FLight rain. Partly sunny.12 mph93%29.77 "HgN/A
5:20 PM37 °FLight rain. Low clouds.13 mph81%29.74 "Hg5 mi
4:50 PM39 °FLight rain. Broken clouds.15 mph65%29.74 "HgN/A
4:20 PM43 °FPartly sunny.12 mph53%29.74 "HgN/A
3:50 PM43 °FSunny.13 mph49%29.74 "Hg10 mi
3:20 PM45 °FPartly sunny.14 mph42%29.74 "HgN/A
2:50 PM45 °FPartly sunny.15 mph42%29.74 "HgN/A
2:20 PM46 °FCool.N/A43%29.74 "HgN/A
1:50 PM45 °FPartly sunny.13 mph49%29.74 "HgN/A
1:20 PM45 °FPartly sunny.10 mph53%29.74 "HgN/A
12:50 PM45 °FScattered clouds.10 mph53%29.74 "HgN/A
12:20 PM43 °FScattered clouds.13 mph57%29.77 "HgN/A
11:50 AM41 °FScattered clouds.10 mph66%29.77 "HgN/A
11:20 AM39 °FScattered clouds.9 mph75%29.77 "HgN/A
10:50 AM39 °FScattered clouds.9 mph75%29.77 "HgN/A
10:20 AM37 °FBroken clouds.7 mph81%29.77 "HgN/A
9:50 AM37 °FBroken clouds.6 mph87%29.77 "HgN/A
9:20 AM36 °FBroken clouds.6 mph93%29.80 "HgN/A
8:50 AM36 °FBroken clouds.8 mph93%29.80 "HgN/A
8:20 AM36 °FBroken clouds.8 mph93%29.77 "Hg6 mi
7:50 AM36 °FBroken clouds.6 mph93%29.77 "Hg5 mi
7:20 AM36 °FBroken clouds.5 mph93%29.77 "Hg5 mi
Weather by CustomWeather, © 2015

See weather overviewHow to use our weather pages